,,Stat6,,Stat2,,Stat8,,Stat9,,Stat10,,Wind1,,Wind1,
time,status,PA1M_AVG,status,PR1M_SUM,status,RH1M_AVG,status,SR1M_AVG,status,TA1M_AVG,status,W1dAve1m,status,W1sAve1m,
2008-06-18, 00:00:00,VALID,916.822,VALID,0,VALID,90.069,VALID,-0.101885,VALID,22.1692,VALID,207,VALID,0,
2008-06-18, 00:01:00,VALID,916.821,VALID,0,VALID,90.1644,VALID,-0.0849042,VALID,22.1361,VALID,207,VALID,0,
2008-06-18, 00:02:00,VALID,916.833,VALID,0,VALID,90.3869,VALID,-0.0679233,VALID,22.0942,VALID,207,VALID,0,
2008-06-18, 00:03:00,VALID,916.863,VALID,0,VALID,90.551,VALID,-0.0679233,VALID,22.0382,VALID,188,VALID,0,
2008-06-18, 00:04:00,VALID,916.873,VALID,0,VALID,90.8078,VALID,-0.0509425,VALID,22.0125,VALID,143,VALID,0,
2008-06-18, 00:05:00,VALID,916.853,VALID,0,VALID,90.7481,VALID,-0.0679233,VALID,22.0228,VALID,154,VALID,0,
2008-06-18, 00:06:00,VALID,916.873,VALID,0,VALID,90.6552,VALID,-0.0679233,VALID,22.0252,VALID,159,VALID,0,
2008-06-18, 00:07:00,VALID,916.881,VALID,0,VALID,90.5014,VALID,-0.101885,VALID,22.0387,VALID,195,VALID,0,
2008-06-18, 00:08:00,VALID,916.897,VALID,0,VALID,90.4594,VALID,-0.0849042,VALID,22.0287,VALID,244,VALID,0,
2008-06-18, 00:09:00,VALID,916.906,VALID,0,VALID,90.2153,VALID,-0.101885,VALID,21.9478,VALID,247,VALID,0,
2008-06-18, 00:10:00,VALID,916.908,VALID,0,VALID,90.8231,VALID,-0.0849042,VALID,21.8171,VALID,247,VALID,0,
2008-06-18, 00:11:00,VALID,916.903,VALID,0,VALID,91.2961,VALID,-0.0339617,VALID,21.7779,VALID,246,VALID,0,
2008-06-18, 00:12:00,VALID,916.908,VALID,0,VALID,91.492,VALID,-0.0679233,VALID,21.7684,VALID,246,VALID,0,
2008-06-18, 00:13:00,VALID,916.911,VALID,0,VALID,91.6573,VALID,-0.0849042,VALID,21.7522,VALID,246,VALID,0,
2008-06-18, 00:14:00,VALID,916.897,VALID,0,VALID,91.7399,VALID,-0.0849042,VALID,21.7557,VALID,199,VALID,0,
2008-06-18, 00:15:00,VALID,916.877,VALID,0,VALID,91.7692,VALID,-0.0849042,VALID,21.7687,VALID,191,VALID,0,
2008-06-18, 00:16:00,VALID,916.892,VALID,0,VALID,91.7247,VALID,-0.0509425,VALID,21.7914,VALID,191,VALID,0.184048,
2008-06-18, 00:17:00,VALID,916.869,VALID,0,VALID,91.717,VALID,-0.0509425,VALID,21.7881,VALID,191,VALID,0.386719,
2008-06-18, 00:18:00,VALID,916.873,VALID,0,VALID,91.5695,VALID,-0.0509425,VALID,21.8203,VALID,191,VALID,0.0853924,
2008-06-18, 00:19:00,VALID,916.842,VALID,0,VALID,91.4182,VALID,-0.0339617,VALID,21.8074,VALID,191,VALID,0,
2008-06-18, 00:20:00,VALID,916.819,VALID,0,VALID,91.5975,VALID,-0.0169808,VALID,21.7914,VALID,191,VALID,0,
2008-06-18, 00:21:00,VALID,916.824,VALID,0,VALID,91.5441,VALID,-0.101885,VALID,21.7849,VALID,191,VALID,0,
2008-06-18, 00:22:00,VALID,916.806,VALID,0,VALID,91.4525,VALID,-0.0679233,VALID,21.7946,VALID,191,VALID,0,
2008-06-18, 00:23:00,VALID,916.814,VALID,0,VALID,91.3521,VALID,0.0339617,VALID,21.7673,VALID,191,VALID,0,
2008-06-18, 00:24:00,VALID,916.81,VALID,0,VALID,91.4233,VALID,0.0849042,VALID,21.7281,VALID,191,VALID,0,
2008-06-18, 00:25:00,VALID,916.805,VALID,0,VALID,91.6445,VALID,0.0509425,VALID,21.6794,VALID,191,VALID,0,
2008-06-18, 00:26:00,VALID,916.794,VALID,0,VALID,91.8175,VALID,0.0679233,VALID,21.6501,VALID,191,VALID,0,
2008-06-18, 00:27:00,VALID,916.779,VALID,0,VALID,91.9434,VALID,0.0339617,VALID,21.6115,VALID,191,VALID,0,
2008-06-18, 00:28:00,VALID,916.759,VALID,0,VALID,92.2155,VALID,0.101885,VALID,21.5752,VALID,193,VALID,0.363636,
2008-06-18, 00:29:00,VALID,916.735,VALID,0,VALID,92.2765,VALID,0.0509425,VALID,21.5855,VALID,205,VALID,0.580031,
2008-06-18, 00:30:00,VALID,916.728,VALID,0,VALID,92.1367,VALID,0.101885,VALID,21.6177,VALID,200,VALID,0,
2008-06-18, 00:31:00,VALID,916.707,VALID,0,VALID,91.7323,VALID,0.0849042,VALID,21.5917,VALID,111,VALID,0,
2008-06-18, 00:32:00,VALID,916.694,VALID,0,VALID,91.9243,VALID,0.101885,VALID,21.471,VALID,96,VALID,0,
2008-06-18, 00:33:00,VALID,916.684,VALID,0,VALID,92.494,VALID,0.0339617,VALID,21.3864,VALID,99,VALID,0,
2008-06-18, 00:34:00,VALID,916.665,VALID,0,VALID,92.9187,VALID,0.0849042,VALID,21.3442,VALID,105,VALID,0,
2008-06-18, 00:35:00,VALID,916.656,VALID,0,VALID,93.0179,VALID,0.0169808,VALID,21.322,VALID,105,VALID,0,
2008-06-18, 00:36:00,VALID,916.637,VALID,0,VALID,93.1654,VALID,0.101885,VALID,21.2863,VALID,135,VALID,0.177455,
2008-06-18, 00:37:00,VALID,916.61,VALID,0,VALID,93.3765,VALID,0,VALID,21.2668,VALID,211,VALID,0.0293403,
2008-06-18, 00:38:00,VALID,916.597,VALID,0,VALID,93.2366,VALID,0.0339617,VALID,21.2579,VALID,211,VALID,0,
2008-06-18, 00:39:00,VALID,916.597,VALID,0,VALID,93.2137,VALID,-0.0169808,VALID,21.2162,VALID,211,VALID,0,
2008-06-18, 00:40:00,VALID,916.578,VALID,0,VALID,93.3549,VALID,-0.0169808,VALID,21.1678,VALID,211,VALID,0,
2008-06-18, 00:41:00,VALID,916.573,VALID,0,VALID,93.5443,VALID,-0.0849042,VALID,21.0996,VALID,206,VALID,0,
2008-06-18, 00:42:00,VALID,916.572,VALID,0,VALID,93.7936,VALID,-0.0339617,VALID,21.0512,VALID,203,VALID,0,
2008-06-18, 00:43:00,VALID,916.568,VALID,0,VALID,94.0148,VALID,-0.0169808,VALID,20.996,VALID,203,VALID,0,
2008-06-18, 00:44:00,VALID,916.564,VALID,0,VALID,94.292,VALID,-0.0509425,VALID,20.9698,VALID,203,VALID,0,
2008-06-18, 00:45:00,VALID,916.584,VALID,0,VALID,94.3734,VALID,-0.0339617,VALID,20.9633,VALID,202,VALID,0.0546875,
2008-06-18, 00:46:00,VALID,916.587,VALID,0,VALID,94.4497,VALID,-0.0679233,VALID,20.9503,VALID,197,VALID,0.136896,
2008-06-18, 00:47:00,VALID,916.575,VALID,0,VALID,94.47,VALID,-0.0849042,VALID,20.9438,VALID,197,VALID,0,
2008-06-18, 00:48:00,VALID,916.578,VALID,0,VALID,94.5769,VALID,-0.101885,VALID,20.9635,VALID,197,VALID,0.265092,
2008-06-18, 00:49:00,VALID,916.578,VALID,0,VALID,94.5171,VALID,-0.0169808,VALID,20.9987,VALID,197,VALID,0.00855655,
2008-06-18, 00:50:00,VALID,916.569,VALID,0,VALID,94.2272,VALID,-0.0849042,VALID,21.0447,VALID,197,VALID,0,
2008-06-18, 00:51:00,VALID,916.549,VALID,0,VALID,94.1509,VALID,-0.0849042,VALID,21.0966,VALID,197,VALID,0.692522,
2008-06-18, 00:52:00,VALID,916.549,VALID,0,VALID,93.7745,VALID,-0.0679233,VALID,21.197,VALID,204,VALID,0.0182884,
2008-06-18, 00:53:00,VALID,916.544,VALID,0,VALID,93.1158,VALID,0.0169808,VALID,21.2806,VALID,202,VALID,0,
2008-06-18, 00:54:00,VALID,916.537,VALID,0,VALID,92.8208,VALID,0.0849042,VALID,21.3247,VALID,202,VALID,0,
2008-06-18, 00:55:00,VALID,916.517,VALID,0,VALID,92.6516,VALID,0.0679233,VALID,21.3474,VALID,202,VALID,0,
2008-06-18, 00:56:00,VALID,916.496,VALID,0,VALID,92.4889,VALID,0.0679233,VALID,21.3964,VALID,202,VALID,0,
2008-06-18, 00:57:00,VALID,916.473,VALID,0,VALID,91.9663,VALID,0.0509425,VALID,21.4356,VALID,202,VALID,0,
2008-06-18, 00:58:00,VALID,916.465,VALID,0,VALID,91.6801,VALID,0.0679233,VALID,21.4518,VALID,202,VALID,0,
2008-06-18, 00:59:00,VALID,916.469,VALID,0,VALID,91.1664,VALID,0.0509425,VALID,21.4424,VALID,202,VALID,0,
2008-06-18, 01:00:00,VALID,916.477,VALID,0,VALID,91.3292,VALID,0.0509425,VALID,21.3896,VALID,202,VALID,0,
2008-06-18, 01:01:00,VALID,916.504,VALID,0,VALID,91.4881,VALID,0.0339617,VALID,21.3382,VALID,202,VALID,0,
2008-06-18, 01:02:00,VALID,916.522,VALID,0,VALID,91.8378,VALID,0.0509425,VALID,21.2535,VALID,162,VALID,0,
2008-06-18, 01:03:00,VALID,916.535,VALID,0,VALID,92.4571,VALID,0.0509425,VALID,21.2086,VALID,152,VALID,0,
2008-06-18, 01:04:00,VALID,916.563,VALID,0,VALID,92.4609,VALID,0.0849042,VALID,21.2178,VALID,161,VALID,0,
2008-06-18, 01:05:00,VALID,916.576,VALID,0,VALID,92.1939,VALID,0.101885,VALID,21.2116,VALID,165,VALID,0.0571733,
2008-06-18, 01:06:00,VALID,916.585,VALID,0,VALID,92.2892,VALID,0.0679233,VALID,21.2019,VALID,168,VALID,0,
2008-06-18, 01:07:00,VALID,916.585,VALID,0,VALID,92.3045,VALID,0.0849042,VALID,21.1821,VALID,168,VALID,0,
2008-06-18, 01:08:00,VALID,916.597,VALID,0,VALID,92.3236,VALID,0.0169808,VALID,21.1702,VALID,168,VALID,0,
2008-06-18, 01:09:00,VALID,916.603,VALID,0,VALID,92.4647,VALID,-0.0169808,VALID,21.1478,VALID,168,VALID,0,
2008-06-18, 01:10:00,VALID,916.589,VALID,0,VALID,92.5499,VALID,-0.0509425,VALID,21.161,VALID,168,VALID,0,
2008-06-18, 01:11:00,VALID,916.587,VALID,0,VALID,92.2269,VALID,-0.0339617,VALID,21.1513,VALID,168,VALID,0,
2008-06-18, 01:12:00,VALID,916.604,VALID,0,VALID,92.4673,VALID,-0.0339617,VALID,21.1221,VALID,164,VALID,0,
2008-06-18, 01:13:00,VALID,916.599,VALID,0,VALID,92.7241,VALID,-0.0169808,VALID,21.125,VALID,163,VALID,0,
2008-06-18, 01:14:00,VALID,916.6,VALID,0,VALID,92.6122,VALID,0,VALID,21.1248,VALID,163,VALID,0,
2008-06-18, 01:15:00,VALID,916.595,VALID,0,VALID,92.7381,VALID,-0.0339617,VALID,21.1315,VALID,163,VALID,0,
2008-06-18, 01:16:00,VALID,916.596,VALID,0,VALID,92.8716,VALID,-0.0339617,VALID,21.1548,VALID,162,VALID,0,
2008-06-18, 01:17:00,VALID,916.575,VALID,0,VALID,92.7674,VALID,-0.0169808,VALID,21.1837,VALID,162,VALID,0,
2008-06-18, 01:18:00,VALID,916.554,VALID,0,VALID,92.6313,VALID,-0.0509425,VALID,21.2094,VALID,162,VALID,0,
2008-06-18, 01:19:00,VALID,916.564,VALID,0,VALID,92.5512,VALID,-0.0169808,VALID,21.1994,VALID,158,VALID,0,
2008-06-18, 01:20:00,VALID,916.57,VALID,0,VALID,92.4177,VALID,0,VALID,21.1905,VALID,156,VALID,0,
2008-06-18, 01:21:00,VALID,916.573,VALID,0,VALID,92.822,VALID,-0.0169808,VALID,21.1705,VALID,147,VALID,0.0716463,
2008-06-18, 01:22:00,VALID,916.588,VALID,0,VALID,92.7699,VALID,-0.0169808,VALID,21.197,VALID,142,VALID,0.00409226,
2008-06-18, 01:23:00,VALID,916.586,VALID,0,VALID,92.6491,VALID,0,VALID,21.1702,VALID,139,VALID,0.824314,
2008-06-18, 01:24:00,VALID,916.575,VALID,0,VALID,92.6555,VALID,0.0169808,VALID,21.17,VALID,130,VALID,0.00941051,
2008-06-18, 01:25:00,VALID,916.57,VALID,0,VALID,92.5563,VALID,-0.0339617,VALID,21.141,VALID,144,VALID,0.105564,
2008-06-18, 01:26:00,VALID,916.547,VALID,0,VALID,92.817,VALID,-0.0509425,VALID,21.1188,VALID,146,VALID,0.0270712,
2008-06-18, 01:27:00,VALID,916.539,VALID,0,VALID,93.1438,VALID,0,VALID,21.0701,VALID,145,VALID,0.160457,
2008-06-18, 01:28:00,VALID,916.517,VALID,0,VALID,93.6995,VALID,-0.0509425,VALID,21.0147,VALID,141,VALID,0.085428,
2008-06-18, 01:29:00,VALID,916.507,VALID,0,VALID,94.2691,VALID,-0.0849042,VALID,20.9148,VALID,143,VALID,0.0024858,
2008-06-18, 01:30:00,VALID,916.495,VALID,0,VALID,94.9075,VALID,-0.0679233,VALID,20.8302,VALID,126,VALID,0,
2008-06-18, 01:31:00,VALID,916.476,VALID,0,VALID,95.7099,VALID,-0.0509425,VALID,20.7393,VALID,141,VALID,0,
2008-06-18, 01:32:00,VALID,916.465,VALID,0,VALID,96.3291,VALID,-0.0679233,VALID,20.6549,VALID,150,VALID,0,
2008-06-18, 01:33:00,VALID,916.434,VALID,0,VALID,96.7322,VALID,-0.0509425,VALID,20.5835,VALID,152,VALID,0.0896662,
2008-06-18, 01:34:00,VALID,916.414,VALID,0,VALID,96.9738,VALID,-0.0509425,VALID,20.5089,VALID,149,VALID,0.0610465,
2008-06-18, 01:35:00,VALID,916.39,VALID,0,VALID,97.2358,VALID,-0.0509425,VALID,20.4439,VALID,148,VALID,0.183689,
2008-06-18, 01:36:00,VALID,916.356,VALID,0,VALID,97.574,VALID,-0.0339617,VALID,20.3918,VALID,148,VALID,0.0276296,
2008-06-18, 01:37:00,VALID,916.328,VALID,0,VALID,97.8284,VALID,-0.0679233,VALID,20.359,VALID,148,VALID,0.171875,
2008-06-18, 01:38:00,VALID,916.297,VALID,0,VALID,98.2086,VALID,-0.0679233,VALID,20.3498,VALID,149,VALID,0,
2008-06-18, 01:39:00,VALID,916.272,VALID,0,VALID,98.529,VALID,-0.0679233,VALID,20.3531,VALID,148,VALID,0,
2008-06-18, 01:40:00,VALID,916.248,VALID,0,VALID,98.7477,VALID,-0.0679233,VALID,20.3336,VALID,148,VALID,0,
2008-06-18, 01:41:00,VALID,916.222,VALID,0,VALID,98.4883,VALID,-0.0849042,VALID,20.2754,VALID,138,VALID,0,
2008-06-18, 01:42:00,VALID,916.195,VALID,0,VALID,98.5799,VALID,-0.0679233,VALID,20.2005,VALID,136,VALID,0,
2008-06-18, 01:43:00,VALID,916.174,VALID,0,VALID,98.5697,VALID,-0.0339617,VALID,20.1454,VALID,136,VALID,0,
2008-06-18, 01:44:00,VALID,916.139,VALID,0,VALID,98.7248,VALID,-0.0849042,VALID,20.0934,VALID,136,VALID,0,
2008-06-18, 01:45:00,VALID,916.126,VALID,0,VALID,98.9397,VALID,-0.0679233,VALID,20.094,VALID,146,VALID,0,
2008-06-18, 01:46:00,VALID,916.113,VALID,0,VALID,98.824,VALID,-0.0679233,VALID,20.0642,VALID,110,VALID,0.87391,
2008-06-18, 01:47:00,VALID,916.093,VALID,0,VALID,99.1483,VALID,-0.0339617,VALID,20.0705,VALID,125,VALID,1.15923,
2008-06-18, 01:48:00,VALID,916.086,VALID,0,VALID,99.3377,VALID,-0.0509425,VALID,20.1192,VALID,136,VALID,0.874809,
2008-06-18, 01:49:00,VALID,916.089,VALID,0,VALID,99.2462,VALID,-0.0679233,VALID,20.1386,VALID,132,VALID,0.612723,
2008-06-18, 01:50:00,VALID,916.082,VALID,0,VALID,99.0822,VALID,-0.0509425,VALID,20.1546,VALID,133,VALID,0.0319444,
2008-06-18, 01:51:00,VALID,916.094,VALID,0,VALID,98.9105,VALID,-0.0509425,VALID,20.1833,VALID,157,VALID,0,
2008-06-18, 01:52:00,VALID,916.112,VALID,0,VALID,98.688,VALID,-0.0509425,VALID,20.2163,VALID,156,VALID,0,
2008-06-18, 01:53:00,VALID,916.132,VALID,0,VALID,98.4565,VALID,-0.0509425,VALID,20.2422,VALID,154,VALID,0,
2008-06-18, 01:54:00,VALID,916.142,VALID,0,VALID,98.2836,VALID,-0.0849042,VALID,20.2522,VALID,166,VALID,0.261052,
2008-06-18, 01:55:00,VALID,916.153,VALID,0,VALID,98.0331,VALID,-0.0849042,VALID,20.2882,VALID,208,VALID,0.123438,
2008-06-18, 01:56:00,VALID,916.161,VALID,0,VALID,97.7393,VALID,-0.0679233,VALID,20.2976,VALID,197,VALID,0.0962271,
2008-06-18, 01:57:00,VALID,916.167,VALID,0,VALID,97.663,VALID,-0.0679233,VALID,20.3233,VALID,158,VALID,0.623547,
2008-06-18, 01:58:00,VALID,916.159,VALID,0,VALID,97.148,VALID,-0.0509425,VALID,20.3493,VALID,155,VALID,0.162059,
2008-06-18, 01:59:00,VALID,916.167,VALID,0,VALID,96.9268,VALID,0.0169808,VALID,20.3645,VALID,155,VALID,0,
2008-06-18, 02:00:00,VALID,916.154,VALID,0,VALID,96.6496,VALID,0.0339617,VALID,20.3707,VALID,155,VALID,0,
2008-06-18, 02:01:00,VALID,916.152,VALID,0,VALID,96.4525,VALID,0.0339617,VALID,20.3645,VALID,155,VALID,0,
2008-06-18, 02:02:00,VALID,916.15,VALID,0,VALID,96.4741,VALID,0.0339617,VALID,20.3678,VALID,150,VALID,0.623698,
2008-06-18, 02:03:00,VALID,916.132,VALID,0,VALID,96.6267,VALID,0.0509425,VALID,20.4164,VALID,144,VALID,0.0804116,
2008-06-18, 02:04:00,VALID,916.123,VALID,0,VALID,95.8917,VALID,0.0509425,VALID,20.4189,VALID,106,VALID,0,
2008-06-18, 02:05:00,VALID,916.117,VALID,0,VALID,95.6158,VALID,0.0679233,VALID,20.3478,VALID,100,VALID,0,
2008-06-18, 02:06:00,VALID,916.1,VALID,0,VALID,95.5598,VALID,0.0679233,VALID,20.3061,VALID,100,VALID,0,
2008-06-18, 02:07:00,VALID,916.103,VALID,0,VALID,95.7989,VALID,0.0169808,VALID,20.2864,VALID,100,VALID,0,
2008-06-18, 02:08:00,VALID,916.099,VALID,0,VALID,95.9642,VALID,-0.0339617,VALID,20.2931,VALID,100,VALID,0,
2008-06-18, 02:09:00,VALID,916.086,VALID,0,VALID,95.7734,VALID,-0.0849042,VALID,20.2979,VALID,100,VALID,0,
2008-06-18, 02:10:00,VALID,916.087,VALID,0,VALID,95.8828,VALID,-0.0509425,VALID,20.2652,VALID,100,VALID,0,
2008-06-18, 02:11:00,VALID,916.094,VALID,0,VALID,96.3012,VALID,-0.0679233,VALID,20.3201,VALID,100,VALID,0,
2008-06-18, 02:12:00,VALID,916.076,VALID,0,VALID,95.9171,VALID,-0.101885,VALID,20.3401,VALID,100,VALID,0,
2008-06-18, 02:13:00,VALID,916.068,VALID,0,VALID,95.6119,VALID,-0.0679233,VALID,20.2979,VALID,100,VALID,0,
2008-06-18, 02:14:00,VALID,916.056,VALID,0,VALID,95.7836,VALID,-0.0509425,VALID,20.2882,VALID,100,VALID,0,
2008-06-18, 02:15:00,VALID,916.031,VALID,0,VALID,96.0036,VALID,-0.101885,VALID,20.2557,VALID,100,VALID,0,
2008-06-18, 02:16:00,VALID,916.016,VALID,0,VALID,96.1358,VALID,-0.101885,VALID,20.2492,VALID,100,VALID,0,
2008-06-18, 02:17:00,VALID,916.01,VALID,0,VALID,96.0087,VALID,-0.101885,VALID,20.2297,VALID,100,VALID,0,
2008-06-18, 02:18:00,VALID,915.989,VALID,0,VALID,95.9566,VALID,-0.0679233,VALID,20.1354,VALID,55,VALID,0.877907,
2008-06-18, 02:19:00,VALID,915.986,VALID,0,VALID,96.9764,VALID,-0.0849042,VALID,20.2128,VALID,43,VALID,0.453835,
2008-06-18, 02:20:00,VALID,915.975,VALID,0,VALID,96.9777,VALID,-0.0849042,VALID,20.3139,VALID,42,VALID,0,
2008-06-18, 02:21:00,VALID,915.972,VALID,0,VALID,97.115,VALID,-0.101885,VALID,20.3823,VALID,38,VALID,0,
2008-06-18, 02:22:00,VALID,915.956,VALID,0,VALID,96.1269,VALID,-0.101885,VALID,20.3953,VALID,38,VALID,0,
2008-06-18, 02:23:00,VALID,915.955,VALID,0,VALID,95.7226,VALID,-0.0169808,VALID,20.3036,VALID,38,VALID,0,
2008-06-18, 02:24:00,VALID,915.946,VALID,0,VALID,95.5178,VALID,0.0679233,VALID,20.2185,VALID,38,VALID,0,
2008-06-18, 02:25:00,VALID,915.903,VALID,0,VALID,95.7671,VALID,0.0509425,VALID,20.1179,VALID,38,VALID,0,
2008-06-18, 02:26:00,VALID,915.888,VALID,0,VALID,96.497,VALID,0.0849042,VALID,20.1336,VALID,38,VALID,0,
2008-06-18, 02:27:00,VALID,915.88,VALID,0,VALID,96.6788,VALID,0.0849042,VALID,20.1503,VALID,38,VALID,0,
2008-06-18, 02:28:00,VALID,915.861,VALID,0,VALID,96.544,VALID,0.0849042,VALID,20.1176,VALID,38,VALID,0,
2008-06-18, 02:29:00,VALID,915.829,VALID,0,VALID,96.8022,VALID,0.0679233,VALID,20.0692,VALID,38,VALID,0,
2008-06-18, 02:30:00,VALID,915.796,VALID,0,VALID,97.1557,VALID,0.0339617,VALID,20.0595,VALID,38,VALID,0,
2008-06-18, 02:31:00,VALID,915.778,VALID,0,VALID,97.2231,VALID,0.0679233,VALID,20.0462,VALID,38,VALID,0,
2008-06-18, 02:32:00,VALID,915.745,VALID,0,VALID,97.1951,VALID,0.101885,VALID,20.0403,VALID,38,VALID,0,
2008-06-18, 02:33:00,VALID,915.714,VALID,0,VALID,96.9268,VALID,0.0509425,VALID,19.9719,VALID,38,VALID,0,
2008-06-18, 02:34:00,VALID,915.677,VALID,0,VALID,96.6559,VALID,0.0339617,VALID,19.8453,VALID,44,VALID,0,
2008-06-18, 02:35:00,VALID,915.658,VALID,0,VALID,96.7411,VALID,0.0849042,VALID,19.6798,VALID,54,VALID,0,
2008-06-18, 02:36:00,VALID,915.64,VALID,0,VALID,97.5753,VALID,0.0849042,VALID,19.6015,VALID,54,VALID,0,
2008-06-18, 02:37:00,VALID,915.628,VALID,0,VALID,98.5811,VALID,0.0849042,VALID,19.6569,VALID,54,VALID,0,
2008-06-18, 02:38:00,VALID,915.639,VALID,0,VALID,98.9614,VALID,0.0339617,VALID,19.7098,VALID,54,VALID,0,
2008-06-18, 02:39:00,VALID,915.65,VALID,0,VALID,99.0478,VALID,0,VALID,19.7325,VALID,54,VALID,0,
2008-06-18, 02:40:00,VALID,915.653,VALID,0,VALID,98.9296,VALID,0,VALID,19.73,VALID,54,VALID,0,
2008-06-18, 02:41:00,VALID,915.651,VALID,0,VALID,99.2424,VALID,0,VALID,19.7487,VALID,54,VALID,0.195135,
2008-06-18, 02:42:00,VALID,915.635,VALID,0,VALID,99.4357,VALID,-0.0169808,VALID,19.8328,VALID,60,VALID,0,
2008-06-18, 02:43:00,VALID,915.63,VALID,0,VALID,99.3123,VALID,0,VALID,19.9182,VALID,101,VALID,0,
2008-06-18, 02:44:00,VALID,915.62,VALID,0,VALID,99.0593,VALID,0,VALID,19.9824,VALID,108,VALID,0,
2008-06-18, 02:45:00,VALID,915.608,VALID,0,VALID,98.6218,VALID,0,VALID,20.0275,VALID,102,VALID,0,
2008-06-18, 02:46:00,VALID,915.616,VALID,0,VALID,97.7966,VALID,-0.0169808,VALID,19.9916,VALID,100,VALID,0,
2008-06-18, 02:47:00,VALID,915.609,VALID,0,VALID,97.527,VALID,0,VALID,19.9337,VALID,100,VALID,0,
2008-06-18, 02:48:00,VALID,915.607,VALID,0,VALID,97.4189,VALID,0.0169808,VALID,19.8623,VALID,100,VALID,0,
2008-06-18, 02:49:00,VALID,915.587,VALID,0,VALID,97.5206,VALID,0,VALID,19.8361,VALID,100,VALID,0,
2008-06-18, 02:50:00,VALID,915.572,VALID,0,VALID,97.5003,VALID,-0.0169808,VALID,19.8169,VALID,100,VALID,0,
2008-06-18, 02:51:00,VALID,915.583,VALID,0,VALID,97.2498,VALID,0,VALID,19.7679,VALID,100,VALID,0,
2008-06-18, 02:52:00,VALID,915.594,VALID,0,VALID,97.2803,VALID,0,VALID,19.7325,VALID,119,VALID,0,
2008-06-18, 02:53:00,VALID,915.615,VALID,0,VALID,98.0445,VALID,0,VALID,19.7352,VALID,161,VALID,0,
2008-06-18, 02:54:00,VALID,915.631,VALID,0,VALID,98.042,VALID,0,VALID,19.7585,VALID,161,VALID,0,
2008-06-18, 02:55:00,VALID,915.601,VALID,0,VALID,98.0903,VALID,0.0339617,VALID,19.7318,VALID,161,VALID,0,
2008-06-18, 02:56:00,VALID,915.577,VALID,0,VALID,98.3586,VALID,0,VALID,19.7255,VALID,161,VALID,0,
2008-06-18, 02:57:00,VALID,915.564,VALID,0,VALID,98.7617,VALID,0.0169808,VALID,19.7547,VALID,161,VALID,0,
2008-06-18, 02:58:00,VALID,915.574,VALID,0,VALID,98.6511,VALID,0.0169808,VALID,19.8001,VALID,161,VALID,0,
2008-06-18, 02:59:00,VALID,915.604,VALID,0,VALID,97.9466,VALID,-0.0169808,VALID,19.7487,VALID,161,VALID,0,
2008-06-18, 03:00:00,VALID,915.62,VALID,0,VALID,97.5448,VALID,0,VALID,19.6097,VALID,161,VALID,0,
2008-06-18, 03:01:00,VALID,915.612,VALID,0,VALID,97.911,VALID,-0.0339617,VALID,19.5538,VALID,161,VALID,0,
2008-06-18, 03:02:00,VALID,915.603,VALID,0,VALID,98.2505,VALID,0,VALID,19.5276,VALID,161,VALID,0,
2008-06-18, 03:03:00,VALID,915.61,VALID,0,VALID,98.7185,VALID,-0.0169808,VALID,19.58,VALID,161,VALID,0,
2008-06-18, 03:04:00,VALID,915.607,VALID,0,VALID,98.8304,VALID,0,VALID,19.6222,VALID,161,VALID,0,
2008-06-18, 03:05:00,VALID,915.595,VALID,0,VALID,98.8647,VALID,-0.0169808,VALID,19.6576,VALID,161,VALID,0,
2008-06-18, 03:06:00,VALID,915.581,VALID,0,VALID,98.9067,VALID,-0.0169808,VALID,19.6776,VALID,161,VALID,0,
2008-06-18, 03:07:00,VALID,915.56,VALID,0,VALID,98.6867,VALID,-0.0169808,VALID,19.6771,VALID,161,VALID,0,
2008-06-18, 03:08:00,VALID,915.555,VALID,0,VALID,98.3484,VALID,0,VALID,19.6416,VALID,161,VALID,0,
2008-06-18, 03:09:00,VALID,915.541,VALID,0,VALID,98.4743,VALID,0,VALID,19.57,VALID,140,VALID,0,
2008-06-18, 03:10:00,VALID,915.519,VALID,0,VALID,99.4331,VALID,-0.0169808,VALID,19.6674,VALID,121,VALID,0,
2008-06-18, 03:11:00,VALID,915.514,VALID,0,VALID,99.2449,VALID,0,VALID,19.7615,VALID,121,VALID,0,
2008-06-18, 03:12:00,VALID,915.511,VALID,0,VALID,99.0377,VALID,-0.0169808,VALID,19.8039,VALID,121,VALID,0,
2008-06-18, 03:13:00,VALID,915.52,VALID,0,VALID,98.9207,VALID,0,VALID,19.8261,VALID,121,VALID,0,
2008-06-18, 03:14:00,VALID,915.525,VALID,0,VALID,98.7134,VALID,0,VALID,19.875,VALID,121,VALID,0,
2008-06-18, 03:15:00,VALID,915.511,VALID,0,VALID,98.6524,VALID,0,VALID,19.881,VALID,121,VALID,0,
2008-06-18, 03:16:00,VALID,915.514,VALID,0,VALID,98.2086,VALID,0,VALID,19.8585,VALID,121,VALID,0,
2008-06-18, 03:17:00,VALID,915.508,VALID,0,VALID,98.4769,VALID,0,VALID,19.8296,VALID,121,VALID,0,
2008-06-18, 03:18:00,VALID,915.492,VALID,0,VALID,98.7757,VALID,0,VALID,19.8555,VALID,121,VALID,0,
2008-06-18, 03:19:00,VALID,915.459,VALID,0,VALID,98.7159,VALID,0.0169808,VALID,19.8748,VALID,121,VALID,0,
2008-06-18, 03:20:00,VALID,915.445,VALID,0,VALID,98.9003,VALID,0,VALID,19.9332,VALID,121,VALID,0,
2008-06-18, 03:21:00,VALID,915.42,VALID,0,VALID,98.6218,VALID,-0.0169808,VALID,19.9886,VALID,121,VALID,0,
2008-06-18, 03:22:00,VALID,915.385,VALID,0,VALID,98.3561,VALID,0,VALID,20.05,VALID,121,VALID,0,
2008-06-18, 03:23:00,VALID,915.35,VALID,0,VALID,97.555,VALID,0,VALID,20.0405,VALID,121,VALID,0,
2008-06-18, 03:24:00,VALID,915.341,VALID,0,VALID,97.8233,VALID,0.0679233,VALID,20.0095,VALID,121,VALID,0,
2008-06-18, 03:25:00,VALID,915.325,VALID,0,VALID,97.6999,VALID,0.0169808,VALID,20.033,VALID,121,VALID,0,
2008-06-18, 03:26:00,VALID,915.305,VALID,0,VALID,97.6173,VALID,0.0509425,VALID,20.0163,VALID,121,VALID,0,
2008-06-18, 03:27:00,VALID,915.301,VALID,0,VALID,97.3057,VALID,0.0509425,VALID,19.9876,VALID,121,VALID,0,
2008-06-18, 03:28:00,VALID,915.297,VALID,0,VALID,96.6458,VALID,0.0509425,VALID,19.8605,VALID,122,VALID,0,
2008-06-18, 03:29:00,VALID,915.301,VALID,0,VALID,97.5499,VALID,0.0849042,VALID,19.7954,VALID,132,VALID,0.338986,
2008-06-18, 03:30:00,VALID,915.304,VALID,0,VALID,98.0928,VALID,0.0169808,VALID,19.8316,VALID,147,VALID,0.986662,
2008-06-18, 03:31:00,VALID,915.298,VALID,0,VALID,98.1106,VALID,0.0849042,VALID,19.8867,VALID,149,VALID,0.639453,
2008-06-18, 03:32:00,VALID,915.288,VALID,0,VALID,97.9225,VALID,0.0849042,VALID,19.8925,VALID,150,VALID,0.678052,
2008-06-18, 03:33:00,VALID,915.293,VALID,0,VALID,98.0369,VALID,0.0849042,VALID,19.9119,VALID,158,VALID,0,
2008-06-18, 03:34:00,VALID,915.303,VALID,0,VALID,98.1412,VALID,0.0679233,VALID,19.9317,VALID,148,VALID,0,
2008-06-18, 03:35:00,VALID,915.318,VALID,0,VALID,98.0331,VALID,0.0509425,VALID,19.8925,VALID,123,VALID,0,
2008-06-18, 03:36:00,VALID,915.334,VALID,0,VALID,98.3586,VALID,0.0679233,VALID,19.883,VALID,123,VALID,0,
2008-06-18, 03:37:00,VALID,915.314,VALID,0,VALID,98.5468,VALID,0.0849042,VALID,19.9224,VALID,123,VALID,0,
2008-06-18, 03:38:00,VALID,915.315,VALID,0,VALID,98.3408,VALID,0.0339617,VALID,19.9322,VALID,123,VALID,0,
2008-06-18, 03:39:00,VALID,915.318,VALID,0,VALID,97.9403,VALID,-0.0509425,VALID,19.8748,VALID,111,VALID,0,
2008-06-18, 03:40:00,VALID,915.305,VALID,0,VALID,98.2925,VALID,-0.0169808,VALID,19.8099,VALID,100,VALID,0,